Tracking 35331 objects as of 14-Sep-2026
HD Live streaming from Space Station
objects crossing your sky now

COSMOS 1484 DEB


COSMOS 1484 DEB is no longer on orbit


NORAD ID: 22895
Int'l Code: 1983-075M
Launch date: July 24, 1983
Source: Commonwealth of Independent States (former USSR) (CIS)
Launch site: TYURATAM MISSILE AND SPACE COMPLEX (TTMTR)
Decay date: 1995-02-05

Note: This is SATELLITE DEBRIS
Your satellite tracking list
Your tracking list is empty




NASA's NSSDC Master Catalog

Two Line Element Set (TLE):
1 22895U 83075  M 95036.72457745  .32643676 +14513-4 +52895-2 0  9999
2 22895 098.3578 136.6414 0013561 210.1864 140.9978 16.33329811072454
Source of the keplerian elements: AFSPC